Regional Weather Roundup
Issued by NWS

Home | Current Version | Previous Version | Text Only | Print | Product List | Glossary On
Versions: 1 2 3 4 5 6 7 8 9 10 11 12 13 14 15 16 17 18 19 20 21 22 23 24 25 26 27
000
ASUS45 KBOU 230507
RWRCO

WEATHER ROUNDUP FOR COLORADO
NATIONAL WEATHER SERVICE DENVER/BOULDER CO
1100 PM MDT THU JUN 22 2017

NOTE: "FAIR" INDICATES FEW OR NO CLOUDS BELOW 12000 FEET WITH NO
SIGNIFICANT WEATHER AND/OR OBSTRUCTIONS TO VISIBILITY.

COZ001>005-013-030-031-230600-
...NORTHWEST COLORADO...

CITY           SKY/WX    TMP DP  RH WIND       PRES   REMARKS
CRAIG          FAIR      63  24  22 W9        30.10R
HAYDEN         FAIR      64  25  22 W7        30.11R
MEEKER         FAIR      58  51  78 MISG      30.13R
RABBIT EARS PA FAIR      50  32  50 W9        30.39S
STEAMBOAT SPGS FAIR      61  43  50 CALM      30.12R
WALDEN         MOCLDY    61  25  25 W8        30.21R
$$

COZ006>008-011-230600-
...WEST CENTRAL VALLEYS...

CITY           SKY/WX    TMP DP  RH WIND       PRES   REMARKS
GRAND JUNCTION FAIR      79  23  12 NW6       29.94R
MONTROSE       FAIR      72  36  26 SE8       30.01R
EAGLE          FAIR      64  41  42 E5        30.14R
RIFLE          FAIR      69  40  34 SE7       30.02R
DELTA          FAIR      75  38  25 SE5       29.96R
NUCLA          FAIR      75  32  20 E7        30.06R
$$

COZ017>023-064>068-230600-
...SOUTHWEST COLORADO...

CITY           SKY/WX    TMP DP  RH WIND       PRES   REMARKS
DURANGO        FAIR      67  24  19 N8        30.06R
CORTEZ         FAIR      67  35  30 E5        30.02R
PAGOSA SPRINGS FAIR      63  20  19 CALM      30.16R
TELLURIDE      FAIR      66  28  23 SE3       30.32S
WOLF CREEK PAS FAIR      54  23  30 NW8       30.57S
$$

COZ009-010-012-014-032>034-037-058>063-230600-
...CENTRAL COLORADO...

CITY           SKY/WX    TMP DP  RH WIND       PRES   REMARKS
ASPEN          FAIR      55  38  52 S7        30.19R
BUENA VISTA    FAIR      65  33  30 NE8       30.23R
COPPER MTN     FAIR      46  32  57 W13       30.52F
BERTHOUD PASS  FAIR      43  30  61 NW30      30.50S
COTTONWOOD PAS FAIR      63  28  27 N3        30.37R
GUNNISON       FAIR      61  37  41 N10       30.18R
KREMMLING      NOT AVBL
LEADVILLE      FAIR      51  33  50 N6        30.35S
MONARCH PASS   FAIR      52  37  58 NE15      30.62S
SALIDA         FAIR      70  43  37 SE14G23   30.24R
SUNLIGHT       FAIR      54  30  40 CALM      30.46R
WILKERSON PASS FAIR      50  32  50 NW7G20    30.51R
$$

COZ069>075-230600-
...SAN LUIS VALLEY/SANGRE DE CRISTO MOUNTAINS...

CITY           SKY/WX    TMP DP  RH WIND       PRES   REMARKS
ALAMOSA        FAIR      66  42  41 E14       30.14R
DEL NORTE      FAIR      69  29  22 SW8       30.19R
LA VETA PASS   MOCLDY    54  39  58 MISG      30.51S
SAGUACHE       FAIR      63  28  27 NW9       30.18R
$$

COZ035-036-038>040-230600-
...NORTHERN COLORADO FRONT RANGE...

CITY           SKY/WX    TMP DP  RH WIND       PRES   REMARKS
DENVER INTL AP FAIR      65  53  65 E12       30.04R
DMNS CITY PARK   N/A     69  52  54 E6        30.04R
AURORA         MOCLDY    66  53  64 SE3       30.06R
FRONT RANGE AP FAIR      66  54  63 E10       30.05R
ERIE MUNI ARPT FAIR      67  51  55 N8        30.03R
BOULDER MUN AP FAIR      64  50  59 NW5       30.05R
CENTENNIAL     MOCLDY    67  50  54 S3        30.07R
BROOMFIELD     FAIR      68  52  56 N7        30.06R
FORT COLLINS   MOCLDY    67  53  61 E5        30.05R
LONGMONT       FAIR      64  55  70 CALM      30.06R
$$

COZ041-046-047-076>085-087-088-230600-
...PIKES PEAK/PALMER DIVIDE AND SOUTHERN FOOTHILLS...

CITY           SKY/WX    TMP DP  RH WIND       PRES   REMARKS
COLO. SPRINGS  FAIR      66  51  58 CALM      30.11S
A. F. ACADEMY  FAIR      63  47  57 CALM      30.13R
SCHRIEVER AFB  NOT AVBL
CHEYENNE MTN   NOT AVBL
ELLICOTT       FAIR     N/A N/A N/A E8        30.08F
FALCON           N/A     60  49  65 W9        30.17S
FORT CARSON    FAIR      65  52  62 W3        30.08R
LIMON          FAIR      66  55  67 SE10      30.05R
MONUMENT HILL  FAIR      59  45  58 S10       30.17S
CANON CITY     CLEAR     68  59  73 N7        30.05S
WALSENBURG     FAIR      61  48  63 SW5       30.12R
TRINIDAD       FAIR      68  47  46 S3        30.09F
$$

COZ042>045-048>051-090-091-230600-
...NORTHEAST COLORADO...

CITY           SKY/WX    TMP DP  RH WIND       PRES   REMARKS
GREELEY ARPT   FAIR      66  55  67 E8        30.03R
AKRON          FAIR      65  53  65 E13       30.01S
BURLINGTON     FAIR      69  57  65 NE16G24   29.97R
WRAY           FAIR      68  54  60 NE7       29.98R
YUMA           FAIR      64  50  59 E9        29.99S
STERLING       FAIR      68  54  60 E6        29.99R
HOLYOKE        NOT AVBL
FORT MORGAN    FAIR      65  53  63 E10       30.02R
$$

COZ086-089-092>099-230600-
...SOUTHEAST COLORADO...

CITY           SKY/WX    TMP DP  RH WIND       PRES   REMARKS
PUEBLO         FAIR      73  52  47 S7        29.97S
LA JUNTA       FAIR      71  52  50 NW16      30.02R
LAMAR          FAIR      70  51  51 VRB3      29.93R
SPRINGFIELD      N/A     67  54  63 N6        29.97R
$$




USA.gov is the U.S. government's official web portal to all federal, state and local government web resources and services.